Showing default

CBERS 1, 25940

Orbit data source: Space-Track

CBERS 1, 25940 is a CN and BR payload satellite in SSO that was launched on Thu, 14 Oct 1999 UTC via a CHANG ZHENG 4B launch vehicle from the Taiyaun Space Center, China (TSC). Payload-class satellites include a variety of spacecraft equipped with specific instruments for various scientific and technological missions. These include communications satellites like Starlink; space stations such as the ISS; scientific satellites like the Hubble; Earth observation satellites from companies like Planet Labs, Umbra, and HawkEye 360; GPS; miniature CubeSats for education and research; and military/defense satellites.

Loading next visibility...
Identifier
25940, 1999-057A
Orbit
SSO
Country
Flag of CNCN / CHBZ
Flag of BRBR / CHBZ
Related business
Manufacturer
CAST
Mission
Civil Imaging
Bus & Motor
ZY, AOCS 20N
Mass
1,540 kg wet, ~1,450 kg dry
Launch date (UTC)
1999-10-14 (27 years ago)
Launch vehicle
CHANG ZHENG 4B
Launch site
Taiyaun Space Center, China (TSC)
Object type
Payload
Rocket body
Debris
Shape & HBR
Box + 1 Pan, 4.5 m
Radar Cross Section
9.469 m², Large (>1 m²)

Expand to show TLE details & history
Last TLE update: 6 hours ago

TLE from 6 hours ago
0 CBERS 1
1 25940U 99057A   26127.86127978  .00000147  00000-0  65344-4 0  9994
2 25940  98.8498 136.2846 0005985 112.3556 247.8264 14.36988845391729
Epoch: 2026-05-07T20:40Z
TLE epoch observation values (Epoch: 2026-05-07T20:40:14.572Z)
Latitude
-0.00007°
Longitude
-39.47745°
Altitude
773.015 km
Speed
7.467 km/s
True Right ascension
09h 05m 08s
True Declination
0° 00' 00"
Sunlit
Object was in daylight at epoch
Visualization orbit readout
Latitude
Unknown
Longitude
Unknown
Altitude
Unknown
Speed
Unknown
Apparent Right ascension
Unknown
Apparent Declination
Unknown
Sunlit
N/A
Visualization observer readout
Local Sidereal Time
10:47:39
Azimuth
Unknown
Elevation
Unknown
Doppler factor
Unknown
Orbital elements
Apogee altitude
769.883 km
Perigee altitude
761.332 km
Semi-major axis
7,143.744 km
Eccentricity
0.0006
Inclination
98.8498°
RAAN
136.2846°
Arg. of periapsis
112.3556°
True anomaly
247.76291°
Mean anomaly
247.8264°
Eccentric anomaly
247.79465°
Mean motion
3.59463 °/min
Orbital period
100.15 mins
BSTAR
0.000065344
Loading maneuver chart data...
Computing Atmospheric mass density...

Documentation

Showing up to 5 results
|